This demonstration page uses our WeatherBlox Daily Observations layout. Learn more.

41.55636, -103.73856

Hourly Observations for May 26, 2016

Temp ( °F °C ) Dew Point ( °F °C ) Humidity (%) Winds ( mph kmh ) Pressure ( in mb ) Visibility ( mi km ) Precip ( " mm )
12:53 am 00:53 Clear 47 8.3 42 5.6 83 83 W 6 9 29.86 1011 10 16.0934 0 0
1:53 am 01:53 Clear 46 7.8 42 5.6 86 86 NW 5 7 29.86 1011 10 16.0934 0 0
2:53 am 02:53 Clear 44 6.7 40 4.4 85 85 NW 5 7 29.86 1011 10 16.0934 0 0
3:53 am 03:53 Clear 45 7.2 40 4.4 83 83 NNW 9 15 29.88 1012 10 16.0934 0 0
4:53 am 04:53 Clear 44 6.7 39 3.9 83 83 NW 9 15 29.87 1012 10 16.0934 0 0
5:53 am 05:53 Sunny 43 6.1 39 3.9 86 86 WNW 7 11 29.87 1012 10 16.0934 0 0
6:53 am 06:53 Sunny 48 8.9 42 5.6 80 80 WNW 6 9 29.88 1012 10 16.0934 0 0
7:53 am 07:53 Sunny 54 12.2 41 5 62 62 WNW 10 17 29.88 1012 10 16.0934 0 0
8:53 am 08:53 Mostly Sunny 59 15 40 4.4 49 49 WSW 6 9 29.87 1012 10 16.0934 0 0
9:53 am 09:53 Sunny 64 17.8 42 5.6 45 45 WSW 9 15 29.86 1011 10 16.0934 0 0
10:53 am 10:53 Mostly Sunny 70 21.1 42 5.6 37 37 Calm 29.84 1011 10 16.0934 0 0
11:53 am 11:53 Sunny 69 20.6 39 3.9 33 33 VRB 3 6 29.83 1010 10 16.0934 0 0
12:53 pm 12:53 Cloudy 70 21.1 40 4.4 34 34 Calm 29.82 1010 10 16.0934 0 0
1:53 pm 13:53 Partly Cloudy 68 20 41 5 38 38 SSE 6 9 29.81 1010 10 16.0934 0 0
2:53 pm 14:53 Cloudy 65 18.3 40 4.4 40 40 W 13 20 29.83 1010 10 16.0934 0 0
3:53 pm 15:53 Mostly Cloudy 63 17.2 40 4.4 43 43 W 17 28 29.84 1010 10 16.0934 0 0
4:53 pm 16:53 Sunny 66 18.9 39 3.9 37 37 W 12 19 29.8 1009 10 16.0934 0 0
5:53 pm 17:53 Cloudy 63 17.2 41 5 45 45 NNW 13 20 29.8 1009 10 16.0934 0 0
6:53 pm 18:53 Mostly Cloudy 62 16.7 40 4.4 44 44 NNW 9 15 29.79 1009 10 16.0934 0 0
7:53 pm 19:53 Cloudy 60 15.6 42 5.6 52 52 W 9 15 29.76 1008 10 16.0934 0 0
8:53 pm 20:53 Mostly Clear 56 13.3 45 7.2 67 67 NNW 6 9 29.77 1008 10 16.0934 0 0
9:53 pm 21:53 Mostly Clear 55 12.8 43 6.1 64 64 NW 8 13 29.77 1008 10 16.0934 0 0
10:53 pm 22:53 Partly Cloudy 54 12 43 6 67 67 WNW 9 15 29.8 1009 10 16.0934 0 0
11:53 pm 23:53 Partly Cloudy 50 10 42 5.6 74 74 W 6 9 29.74 1007 10 16.0934 0 0

Powered by AerisWeather